#timestamp,LO_Frequency,Hit,StdDev 
1660179615.4,286047003.4,N
1660179635.3,286047002.0,N
1660179655.1,286047004.5,N
1660179675.8,286047004.7,N
1660179695.7,286047003.6,N
1660179715.5,286047007.3,N
1660179735.3,286047008.3,Y
1660179755.2,286047004.8,P
1660179775.0,286047005.8,P
1660179775.9,286047005.8,P
1660179795.8,286047005.5,Y
1660179815.6,286047001.1,P
1660179835.4,286046998.9,N
1660179855.3,286046998.9,N
1660179875.1,286046996.0,N
1660179876.0,286046996.0,N
1660179895.8,286046992.4,N
1660179915.7,286046996.1,N
1660179935.5,286046997.5,N
1660179955.3,286046996.9,N
1660179975.2,286046994.2,N
1660179995.9,286046997.1,N
1660180015.7,286046997.4,N
1660180035.6,286047002.2,N
1660180055.4,286046998.3,N
1660180075.2,286046994.8,N
1660180095.1,286046994.5,N
1660180096.0,286046994.5,N
1660180115.8,286046996.5,N
1660180135.6,286047002.6,N
1660180155.5,286047002.7,N
1660180175.3,286046998.8,N
1660180195.1,286046991.8,N
1660180215.9,286046993.3,N
1660180235.7,286046997.1,N
1660180255.5,286046995.8,N
1660180275.4,286047005.5,N
1660180295.2,286047003.5,N
1660180315.0,286046998.6,N
1660180315.9,286046998.6,N
1660180335.8,286046993.4,N
1660180355.6,286046999.8,N
1660180375.4,286047002.4,N
1660180395.3,286047001.3,N
1660180415.1,286047001.6,N
1660180416.0,286047001.6,N
1660180435.8,286047002.7,N
1660180455.7,286047001.8,N
1660180475.5,286047002.1,N
1660180495.3,286047002.7,N
1660180515.2,286046998.5,N
1660180535.9,286047000.3,N
1660180555.7,286046999.8,N
1660180575.6,286047001.1,N
1660180595.4,286046987.5,Y
1660180615.2,286046995.3,P
1660180635.1,286047001.2,N
1660180636.0,286047001.2,N
1660180655.8,286047002.2,N
1660180675.6,286046999.8,N
1660180695.5,286046995.2,N
1660180715.3,286046991.1,Y
1660180735.1,286047000.9,P
1660180755.9,286046997.4,P
1660180775.7,286046988.8,P
1660180795.5,286046999.8,N
1660180815.4,286047004.0,N
1660180835.2,286047000.2,N
1660180855.0,286047003.9,N
1660180855.9,286047003.9,N
1660180875.8,286047003.7,N
1660180895.6,286047001.5,N
1660180915.4,286047002.3,N
1660180935.3,286047002.1,N
1660180955.1,286047002.4,N
1660180956.0,286047002.4,N
1660180975.8,286047003.8,N
1660180995.7,286047009.2,N
1660181015.5,286047007.5,N
1660181035.3,286047006.0,N
1660181055.2,286047003.9,N
1660181075.9,286046998.1,N
1660181095.7,286047000.5,N
1660181115.6,286047002.8,N
1660181135.4,286046999.7,N
1660181155.2,286047003.5,N
1660181175.1,286047004.1,N
1660181176.0,286047004.1,N
1660181195.8,286047003.3,N
1660181215.6,286047004.9,N
1660181235.5,286047005.8,N
1660181255.3,286047002.5,N
1660181275.1,286047002.7,N
1660181295.9,286046999.5,N
1660181315.7,286047005.8,N
1660181335.5,286047004.5,N
1660181355.4,286047005.6,N
1660181375.2,286047005.3,N
1660181395.0,286047005.4,N
1660181395.9,286047005.4,N
1660181415.8,286047003.3,N
1660181435.6,286047003.2,N
1660181455.4,286047002.5,N
1660181475.3,286047005.7,N
1660181495.1,286047005.1,N
1660181496.0,286047005.1,N
1660181515.8,286047007.3,Y
1660181535.7,286047001.8,P
1660181555.5,286047001.9,N
1660181575.3,286047002.2,N
1660181595.2,286047001.6,N
1660181615.9,286047001.3,N
1660181635.7,286046999.8,N
1660181655.6,286046999.8,N
1660181675.4,286047002.3,N
1660181695.2,286047002.6,N
1660181715.1,286047002.8,N
1660181716.0,286047002.8,N
1660181735.8,286047001.8,N
1660181755.6,286047002.4,N
1660181775.5,286047001.6,N
1660181795.3,286047001.6,N
1660181815.1,286046999.1,N
1660181835.9,286047000.6,N
1660181855.7,286046999.9,N
1660181875.5,286047000.1,N
1660181895.4,286047001.9,N
1660181915.2,286047002.8,N
1660181935.0,286046998.1,N
1660181935.9,286046998.1,N
1660181955.8,286047003.9,N
1660181975.6,286047003.3,N
1660181995.4,286047003.0,N
1660182015.3,286047003.8,N
1660182035.1,286047004.3,N
1660182036.0,286047004.3,N
1660182055.8,286047001.5,N
1660182075.7,286047004.4,N
1660182095.5,286047004.0,N
1660182115.3,286047004.2,N
1660182135.2,286047004.4,N
1660182155.9,286047003.4,N
1660182175.7,286047004.1,N
1660182195.6,286047005.5,N
1660182215.4,286047004.7,N
1660182235.2,286047006.0,Y
1660182255.1,286047001.7,P
1660182256.0,286047001.7,P
1660182275.8,286047002.4,P
1660182295.6,286047002.5,Y
1660182315.5,286047001.2,P
1660182335.3,286047000.6,N
1660182355.1,286047000.9,N
1660182375.9,286047000.8,N
1660182395.7,286046999.9,N
1660182415.5,286046999.9,N
1660182435.4,286047002.8,Y
1660182455.2,286046998.5,P
1660182475.0,286047000.7,N
1660182475.9,286047000.7,N
1660182495.8,286047000.3,N
1660182515.6,286047000.1,N
1660182535.4,286046999.0,N
1660182555.3,286046999.8,N
1660182575.1,286047001.9,N
1660182595.8,286047001.6,N
1660182615.7,286047002.0,N
1660182635.5,286047001.6,N
1660182655.3,286047001.7,N
1660182675.2,286047002.4,N
1660182695.0,286047001.9,N
1660182695.9,286047001.9,N
1660182715.7,286047002.1,N
1660182735.6,286047002.3,N
1660182755.4,286047003.8,Y
1660182775.2,286047001.4,P
1660182795.1,286047001.4,P
1660182796.0,286047001.4,P
1660182815.8,286047002.4,Y
1660182835.6,286047000.2,P
1660182855.5,286047000.5,N
1660182875.3,286047000.0,N
1660182895.1,286046999.8,N
1660182915.9,286046999.7,N
1660182935.7,286047001.5,N
1660182955.5,286047002.1,Y
1660182975.4,286047002.8,P
1660182995.2,286047002.1,N
1660183015.0,286047002.6,N
1660183016.0,286047002.6,N
1660183035.8,286047002.7,Y
1660183055.6,286046998.5,P
1660183075.5,286047001.2,N
1660183095.3,286046998.7,N
1660183115.1,286047000.9,N
1660183135.9,286047000.4,N
1660183155.7,286047000.4,N
1660183175.5,286047000.3,N
1660183195.4,286047000.0,N
